Regional Weather Roundup
Issued by NWS

Home | Current Version | Previous Version | Graphics & Text | Print | Product List | Glossary Off
Versions: 1 2 3 4 5 6 7 8 9 10 11 12 13 14 15 16 17 18 19 20 21 22 23 24 25 26 27 28 29 30 31 32 33 34 35 36 37 38 39 40 41 42 43 44 45 46 47 48 49 50

000
ASUS43 KFSD 290002
RWRSD

WEATHER ROUNDUP FOR SOUTH DAKOTA
NATIONAL WEATHER SERVICE SIOUX FALLS SD
700 PM CDT WED JUN 28 2017

NOTE: "FAIR" INDICATES FEW OR NO CLOUDS BELOW 12,000 FEET WITH NO
SIGNIFICANT WEATHER AND/OR OBSTRUCTIONS TO VISIBILITY.


SDZ001>005-009-010-012>017-290100-
NORTHWEST AND NORTH CENTRAL SOUTH DAKOTA

CITY           SKY/WX    TMP DP  RH WIND       PRES   REMARKS
BUFFALO          N/A     79  26  14 E8        29.68F
FAITH            N/A     82  29  14 NE9       29.72R
MOBRIDGE       SUNNY     85  35  16 N10       29.66R
$$

SDZ012>016-024>037-041>051-057-063-072>074-290100-
SOUTHWEST AND SOUTH CENTRAL SOUTH DAKOTA

CITY           SKY/WX    TMP DP  RH WIND       PRES   REMARKS
RAPID CTY ARPT TSTM      65  53  65 NE8G17    29.75S
PIERRE         SUNNY     84  37  18 NW7       29.66S
CUSTER         PTSUNNY   70  47  43 E20G25    29.86F
ELLSWORTH AFB  PTSUNNY   69  52  53 SE9       29.74  THUNDER
PHILIP         MOSUNNY   84  43  23 SE5       29.70R
PINE RIDGE     PTSUNNY   83  48  29 E8        29.73F
SPEARFISH      FAIR      57  55  94 VRB5G12   29.85F
WINNER         FAIR      89  51  27 N8        29.70R
$$

SDZ004>011-016>023-039-040-290100-
NORTHEAST SOUTH DAKOTA

CITY           SKY/WX    TMP DP  RH WIND       PRES   REMARKS
ABERDEEN       SUNNY     81  41  24 N14       29.63S
WATERTOWN      FAIR      78  54  43 NW13G24   29.63R
BROOKINGS      FAIR      81  58  45 NW12      29.63R
SISSETON         N/A     77  63  61 N18G25    29.60R
$$

SDZ017-020-022-023-036>040-048>070-290100-
SOUTHEAST SOUTH DAKOTA

CITY           SKY/WX    TMP DP  RH WIND       PRES   REMARKS
SIOUX FALLS    FAIR      84  63  49 NW9       29.62S
HURON          SUNNY     86  41  20 NW17      29.63R
CHAMBERLAIN    SUNNY     86  49  27 N10       29.67S
MITCHELL       SUNNY     87  51  28 NW12      29.63S
YANKTON        FAIR      85  61  44 NW9       29.64S
$$

ABBREVIATIONS USED IN REMARKS
   TC - TEMPERATURE IN CELSIUS
  WCI - WIND CHILL INDEX
   HX - HEAT INDEX
  VSB - VISIBILITY





USA.gov is the U.S. government's official web portal to all federal, state and local government web resources and services.